RH
90 91 87 84 80 80 83 82 85 89 85 83 84 86 85 85 88 89 90 89 87 86 86 87 87 83 81 81 78 82 80 60 56 73 75 56 47 48 40 49 61 51 60 71 48 32 33 28 27 27 22 18 16 15 14 16 16 14 16 17 15 14 13 11 12 11 10 10 9 12 10 9 9 7 34 54 59 70 74 78 77 76 77 72 73 77 85 93
89 90 88 88 88 87 86 85 85 86 85 84 85 86 84 86 88 89 90 88 89 88 85 86 85 84 83 79 78 83 72 59 66 71 72 69 56 48 34 44 68 54 58 77 52 35 36 26 25 25 20 18 17 16 14 16 16 14 18 17 14 12 11 10 10 10 10 9 9 11 9 11 8 7 25 35 56 73 73 86 82 80 86 77 80 84 88 93
87 86 84 83 86 87 88 90 87 86 87 85 85 86 85 88 89 89 91 88 88 87 87 87 84 84 83 81 82 75 66 65 61 54 73 81 54 44 33 31 57 54 51 62 43 30 33 28 27 25 21 19 18 17 15 16 16 15 16 15 13 11 11 10 9 10 9 8 9 9 9 11 6 9 16 18 47 66 65 82 82 83 92 84 83 85 89 90
87 86 86 86 88 87 90 92 89 88 90 89 88 88 86 88 88 89 91 91 89 85 86 87 85 85 83 87 82 69 68 58 42 49 78 80 49 40 33 28 53 55 47 54 43 32 36 33 26 25 24 20 20 20 15 15 16 16 15 13 12 12 12 10 10 10 8 9 8 9 10 9 10 14 17 21 41 53 55 64 64 72 87 88 86 85 87 86
91 90 90 93 93 91 91 91 89 89 90 90 89 89 88 89 89 89 90 90 90 87 86 86 85 85 86 91 81 72 62 32 35 63 71 62 44 36 30 29 50 64 67 65 50 41 42 34 25 25 25 21 22 20 16 16 16 17 16 14 12 13 11 10 11 9 9 10 7 10 8 12 25 32 37 26 17 27 43 53 53 61 76 84 85 83 84 83
93 92 93 94 94 92 90 89 90 91 92 90 90 89 88 88 90 91 90 88 89 89 87 86 85 85 89 91 82 71 46 18 41 68 55 44 40 33 29 25 36 66 88 73 50 43 39 31 25 25 26 23 22 19 18 18 17 16 15 17 15 13 11 11 12 9 11 9 9 11 7 23 39 48 64 41 18 37 55 60 58 60 71 78 81 82 83 82
92 92 93 93 94 93 90 91 92 93 94 91 91 92 89 87 88 90 91 88 89 90 88 88 85 83 90 91 80 72 59 43 40 41 35 34 40 35 26 24 24 47 77 67 44 36 34 32 27 25 26 24 22 20 19 20 19 16 14 18 18 14 12 12 12 10 11 9 10 10 7 25 25 35 76 67 50 68 69 67 65 65 72 75 80 82 81 80
90 91 92 93 93 92 92 93 92 92 93 92 91 93 92 88 85 87 89 89 89 89 89 90 86 84 91 90 79 72 69 56 35 31 37 39 44 34 21 25 20 26 53 59 46 36 32 33 28 25 25 23 23 21 21 20 20 19 16 18 19 16 14 12 13 12 12 11 11 11 9 16 15 33 79 81 69 76 71 69 71 72 77 78 81 83 80 79
89 90 91 91 92 90 90 91 91 92 91 92 92 93 93 88 86 86 86 89 91 92 90 90 87 83 89 88 81 74 56 42 38 45 50 44 39 27 21 27 22 25 38 44 47 42 33 32 29 25 23 22 23 22 21 19 17 19 18 18 19 18 15 13 14 13 14 13 11 14 8 15 37 52 73 83 75 75 74 72 75 79 82 82 82 82 80 79
89 90 91 91 92 89 88 91 92 93 90 90 92 92 91 89 87 85 86 89 89 93 92 91 90 85 87 83 81 76 49 36 38 37 38 37 31 26 24 23 26 36 38 36 43 44 36 32 28 24 22 22 22 22 22 18 15 19 19 18 18 17 17 15 15 14 15 15 12 12 9 30 60 47 48 79 80 74 77 77 79 82 82 83 82 81 80 80
87 91 92 91 92 89 91 95 95 95 90 89 92 89 88 89 89 86 89 91 86 89 92 92 93 90 87 83 87 77 43 31 33 30 34 37 35 32 28 26 32 43 44 38 38 42 40 34 28 24 22 22 22 23 22 19 16 17 18 19 19 17 18 16 16 16 15 15 14 12 17 47 66 38 37 73 79 76 81 81 85 83 81 82 81 82 81 80
89 89 90 89 90 91 94 94 94 95 91 92 93 89 89 89 88 84 85 92 86 85 91 94 95 93 89 85 89 73 42 34 38 40 40 36 40 38 34 37 40 45 46 38 33 38 41 38 33 27 24 22 21 23 21 19 17 15 16 18 18 19 19 17 17 16 15 15 14 13 17 36 48 39 50 73 77 80 81 82 86 84 81 81 80 83 81 80
92 90 90 91 91 93 94 91 91 92 91 94 93 91 92 84 79 76 77 88 90 86 92 96 94 92 92 90 78 56 43 46 49 48 40 36 44 41 40 44 41 45 47 41 35 34 38 39 36 31 27 23 21 21 18 18 18 16 16 15 16 18 18 17 16 15 15 14 13 13 12 17 31 49 69 77 77 79 79 79 82 84 83 81 81 82 82 82
92 91 92 92 92 93 93 93 92 92 90 94 95 91 84 74 72 71 70 82 88 86 90 95 96 93 94 88 66 47 47 51 50 44 38 41 47 42 39 42 40 42 46 45 39 32 35 38 36 33 30 27 24 21 19 18 18 18 17 16 16 17 17 16 16 17 16 15 13 12 11 11 26 60 80 77 76 76 76 77 78 82 83 81 82 83 85 84
92 93 93 92 95 93 92 94 93 93 91 93 95 87 74 67 67 66 70 84 90 86 87 96 97 89 88 80 58 48 47 46 41 36 39 47 49 40 36 38 38 38 41 45 42 38 38 38 36 35 31 28 26 24 21 19 18 18 18 19 17 15 15 15 16 16 15 15 13 10 16 16 24 60 81 74 76 76 73 75 75 79 80 80 84 86 88 87
92 92 93 93 95 92 89 93 94 93 91 94 93 81 68 63 64 63 71 88 93 90 92 94 92 88 85 73 54 45 42 40 36 35 40 45 44 39 37 41 40 37 40 44 45 44 41 36 33 32 28 24 26 26 22 22 22 19 18 20 19 16 14 13 15 16 13 14 14 12 19 25 27 54 79 76 77 76 73 76 77 80 83 83 86 88 89 88
92 91 90 92 93 92 88 90 95 94 90 94 90 74 60 58 64 63 65 79 86 92 97 90 87 90 81 65 53 44 41 41 38 39 40 36 38 40 42 44 41 41 44 43 44 43 38 33 30 31 28 24 25 24 24 28 26 22 20 19 18 18 14 12 14 15 13 12 14 13 16 32 47 61 79 83 76 74 74 75 79 83 85 85 87 89 88 87
93 91 91 92 91 91 89 87 93 93 91 92 83 67 58 62 71 71 71 76 81 88 94 92 86 75 58 52 55 50 44 45 44 45 40 34 40 46 47 45 41 44 43 38 39 37 34 31 28 30 30 27 25 24 27 26 24 25 24 22 20 18 16 13 12 13 15 12 13 15 12 36 71 72 74 87 81 75 74 72 77 82 86 88 89 90 88 87
91 91 92 92 89 90 89 85 89 90 90 87 74 60 58 67 74 78 81 80 79 76 71 82 82 54 36 42 49 47 46 48 49 48 40 37 46 48 47 48 45 46 41 35 37 35 31 32 32 33 32 30 26 24 23 21 20 22 23 23 18 17 17 13 11 12 15 12 12 16 10 31 74 75 69 87 88 77 73 73 79 83 88 90 90 90 88 88
90 89 93 94 91 91 88 86 89 89 86 81 71 63 64 75 79 78 82 78 74 67 55 66 73 56 47 46 46 48 50 51 48 46 41 39 46 42 39 47 50 49 40 35 38 33 30 36 38 34 30 27 25 22 21 21 20 18 20 21 16 16 17 13 12 11 13 14 12 15 12 24 62 74 68 82 93 85 78 79 81 84 89 92 91 90 87 87
91 88 91 96 95 93 90 88 90 88 84 77 73 72 74 82 83 80 87 82 70 68 64 63 66 66 62 54 52 54 57 58 52 49 46 44 45 38 38 50 55 52 42 33 35 30 32 41 38 30 26 24 23 22 21 22 20 19 19 18 18 16 13 14 12 10 12 12 16 18 12 22 54 70 68 76 92 92 84 82 80 80 87 92 91 89 86 84
93 90 91 95 94 93 93 91 88 85 81 77 79 84 79 78 80 80 91 94 78 70 70 66 66 68 65 62 63 61 66 71 63 50 44 45 45 35 40 52 54 50 40 34 36 35 39 42 34 28 26 23 22 21 21 21 21 21 18 18 20 14 14 15 10 16 15 8 25 30 13 26 56 68 69 72 80 82 80 79 76 76 82 90 91 88 88 87
94 92 92 94 94 95 97 93 87 84 82 83 88 91 83 78 82 83 92 99 85 69 66 68 70 71 69 66 65 66 72 76 68 51 39 45 45 35 42 53 52 49 42 37 40 41 44 38 29 27 25 23 24 22 20 21 22 22 19 20 19 14 16 11 16 42 41 27 39 35 21 43 66 71 72 69 71 73 76 77 74 75 76 83 88 85 87 89
90 91 94 95 96 96 96 92 86 86 86 83 84 85 84 83 85 87 92 91 81 71 64 65 67 69 68 63 60 67 72 69 64 52 39 42 45 40 45 50 52 53 43 37 38 39 38 31 26 27 25 25 25 23 21 21 23 23 22 20 17 17 13 12 34 60 57 51 50 34 34 58 69 74 77 75 77 74 73 77 76 74 74 79 87 86 85 88
90 92 94 94 96 95 94 90 86 89 87 78 77 82 86 86 83 85 88 86 78 66 58 60 64 61 59 60 61 63 67 64 57 49 42 40 42 44 47 47 50 53 45 38 39 39 35 28 26 27 27 26 25 25 22 19 21 23 23 20 17 16 14 29 50 45 36 47 49 34 30 47 65 74 77 83 90 84 78 82 82 76 76 82 90 88 84 86
93 94 94 95 96 94 93 90 90 95 91 81 79 84 87 83 81 80 81 86 76 53 46 51 54 50 50 57 60 58 60 54 45 46 47 41 37 41 48 49 47 49 45 39 39 38 34 29 28 28 28 27 26 25 21 18 20 23 22 19 18 17 19 42 49 24 22 38 48 43 24 39 73 73 69 83 91 91 90 90 88 83 81 84 87 85 83 87
95 95 97 98 97 97 97 93 95 97 91 82 77 84 88 81 82 76 66 73 63 41 42 46 44 45 46 50 52 50 49 39 33 40 45 43 38 36 45 52 51 46 39 39 44 41 34 31 30 29 29 29 27 26 22 18 17 19 20 18 19 18 17 35 37 25 37 45 54 64 37 35 68 65 62 76 80 88 96 94 91 88 87 85 83 82 82 84
97 97 99 100 99 100 98 95 98 93 83 79 77 86 87 79 82 72 60 70 57 38 46 45 38 41 42 47 49 43 40 38 39 40 38 43 41 35 42 48 51 47 36 39 47 39 33 34 33 31 32 31 27 25 21 18 17 16 18 17 18 18 14 21 24 32 57 50 45 70 52 26 47 61 62 70 75 82 88 90 87 84 85 84 81 81 79 82
99 100 100 100 101 99 97 97 96 84 73 75 80 85 83 79 77 60 57 70 53 41 54 50 42 43 44 52 54 48 45 44 44 39 37 43 41 37 41 39 42 44 35 36 38 32 30 31 29 29 32 31 27 23 19 18 17 14 16 17 16 17 17 18 16 29 62 56 36 58 55 23 37 67 70 71 78 76 73 78 76 71 73 74 77 79 76 79
100 100 100 100 100 100 100 98 90 78 72 75 77 80 83 80 70 65 75 71 47 45 58 53 50 53 53 58 58 56 55 48 43 38 39 45 42 38 38 33 35 40 36 35 33 28 26 26 26 27 27 28 26 22 18 17 16 14 16 16 16 18 20 24 24 26 52 59 41 49 55 30 29 58 72 72 70 64 64 71 69 63 63 64 70 76 76 77
100 99 101 100 100 101 100 95 85 74 71 74 76 82 89 79 66 76 85 61 42 54 61 55 59 62 60 62 62 61 58 51 45 42 44 47 44 42 42 39 38 40 41 40 36 29 25 26 29 26 22 24 25 22 18 15 15 15 13 13 19 22 21 26 30 28 36 41 36 45 57 45 29 41 61 65 59 54 57 64 66 63 62 62 66 70 72 74
99 99 100 97 99 101 94 90 85 73 65 70 80 87 86 81 78 78 69 52 52 64 65 61 66 68 65 66 68 66 63 58 48 43 43 43 43 44 45 44 43 45 48 45 40 34 29 26 25 24 22 22 25 27 22 17 16 16 14 15 22 24 26 28 28 29 29 27 35 47 57 57 42 37 49 58 58 53 51 55 58 59 60 61 65 69 69 71
94 93 94 90 93 95 88 87 89 82 73 72 84 88 84 88 87 70 62 64 64 65 69 72 70 66 68 76 75 67 67 64 52 45 42 40 43 46 45 42 40 42 45 43 40 38 34 28 22 23 24 20 23 30 28 22 19 16 15 16 21 25 33 36 31 29 27 27 44 54 53 54 45 36 41 50 55 52 49 51 51 54 59 60 64 68 69 70
86 88 90 86 88 88 84 86 90 88 82 79 85 90 91 93 80 63 66 73 68 66 73 79 78 71 73 80 73 65 70 68 53 45 43 41 46 53 55 46 38 39 40 39 39 38 40 37 26 24 25 21 22 26 25 22 19 16 15 14 19 23 28 32 27 27 34 42 59 63 49 41 34 35 42 43 46 50 48 50 51 53 57 60 65 67 68 70
79 85 88 87 90 88 82 84 87 88 86 87 90 93 95 90 76 72 76 74 74 78 76 76 82 85 81 76 69 65 69 69 57 45 42 43 46 55 56 43 36 39 38 38 40 35 36 36 26 21 22 20 21 22 19 21 21 18 15 15 19 19 23 30 29 34 45 49 62 67 51 38 32 40 54 50 47 53 52 52 56 55 55 61 67 69 68 69
78 81 85 90 95 91 84 81 83 88 90 91 95 96 89 77 71 77 79 75 79 85 85 81 83 91 86 74 74 75 68 67 63 49 42 42 42 47 48 38 35 38 34 36 41 36 32 33 27 23 23 19 20 20 17 20 23 20 17 18 19 17 22 34 35 40 43 33 45 62 52 43 35 39 65 66 51 55 58 56 59 57 59 64 69 70 69 68
88 88 90 94 95 91 89 85 81 89 94 94 98 92 78 68 65 68 73 78 79 83 94 93 83 87 87 74 74 77 73 70 63 51 46 43 40 42 42 37 34 34 33 33 36 37 33 30 27 24 23 19 18 18 17 16 19 20 20 17 18 17 21 28 31 37 35 24 37 55 52 47 33 32 67 74 54 56 60 58 61 61 64 68 69 71 70 68
99 98 95 93 94 92 93 90 85 91 95 96 97 88 78 76 72 68 72 79 81 86 97 96 85 84 85 78 72 72 74 71 60 51 46 42 39 37 35 35 34 31 32 31 34 39 34 29 27 23 22 20 17 19 21 18 15 16 17 14 16 21 21 26 31 35 34 28 35 48 54 53 34 28 57 66 55 58 60 60 65 66 69 70 69 72 71 69
100 96 91 92 97 97 95 92 89 93 96 96 95 85 79 79 73 69 74 78 83 91 94 90 86 85 86 81 72 69 69 63 56 51 45 42 40 35 29 31 33 31 30 30 36 40 37 34 30 23 21 20 19 22 25 23 17 15 15 13 16 20 18 23 29 29 32 31 31 39 48 49 36 29 40 47 48 55 61 67 68 67 71 70 68 73 72 70
99 93 89 94 100 98 94 91 93 96 95 92 89 82 79 78 73 68 70 76 86 92 92 90 88 86 88 82 70 67 64 57 53 48 42 39 37 35 31 27 29 32 29 30 33 36 39 40 35 27 22 22 23 24 23 23 21 17 18 18 18 18 17 20 25 24 26 30 31 35 38 36 36 35 33 36 44 51 59 68 68 67 70 68 68 73 73 71
99 92 91 98 101 96 92 93 97 97 94 91 89 86 83 80 78 75 73 78 87 88 86 92 94 89 88 82 72 70 63 55 53 46 39 38 36 37 33 25 28 31 30 33 34 34 38 40 39 34 27 25 23 19 18 19 19 17 19 20 17 17 18 18 23 26 23 27 34 37 31 26 34 42 35 33 42 49 56 64 66 68 67 66 71 74 73 73
94 87 87 98 100 93 93 97 98 98 98 93 87 85 83 81 83 85 82 83 91 94 90 93 98 95 88 82 77 75 65 53 51 48 39 35 36 35 30 25 26 26 30 36 34 36 41 38 38 37 30 26 22 18 18 17 16 16 16 17 16 19 21 16 21 27 24 26 35 34 26 22 38 56 53 46 49 51 56 63 66 68 67 69 74 73 72 74
94 89 86 97 99 92 95 98 94 96 96 85 78 79 80 82 87 90 90 92 97 100 97 95 99 97 90 85 81 77 70 58 51 47 42 36 32 31 29 27 27 25 29 34 33 36 40 38 37 35 31 26 19 18 19 15 16 18 16 17 16 16 18 17 23 29 24 24 27 27 23 20 37 65 70 62 59 57 60 66 68 71 74 73 72 72 74 75
96 96 90 94 95 92 99 98 92 94 90 79 81 83 77 79 86 89 93 97 98 100 98 95 98 99 95 92 87 80 72 65 56 45 42 41 33 29 29 26 26 27 27 32 35 33 36 40 40 38 38 34 26 23 22 18 19 20 18 19 16 15 21 26 30 29 23 22 21 22 23 18 33 66 77 69 63 62 65 67 68 75 77 73 71 73 78 80
92 91 90 93 96 97 98 94 94 99 94 88 91 86 79 81 82 83 89 92 95 101 100 94 95 98 98 97 94 87 76 71 69 57 47 44 36 31 31 26 25 27 26 30 31 28 37 47 41 37 42 43 37 33 29 23 21 20 20 18 15 17 21 26 28 24 23 29 26 20 19 15 25 51 70 74 70 68 72 72 72 76 75 71 74 78 82 86
88 83 85 90 96 100 97 92 96 101 98 98 95 84 82 85 75 74 86 91 93 99 100 98 97 98 99 98 95 91 81 72 72 67 57 50 42 34 29 25 25 25 27 32 29 31 49 55 43 39 41 38 37 36 29 22 20 21 21 19 17 19 23 26 26 22 26 32 28 24 25 22 18 25 47 72 78 74 77 80 78 78 76 73 76 80 83 89
87 86 91 94 92 95 96 92 94 98 95 96 95 87 86 85 73 71 83 90 92 95 98 97 97 98 100 97 92 90 82 72 71 72 64 56 51 40 28 25 26 26 29 30 27 36 54 54 48 51 47 37 36 37 32 27 24 20 20 22 21 23 28 30 27 29 36 30 21 31 43 36 19 12 29 61 78 78 80 81 78 79 77 74 77 83 85 89
80 82 90 91 87 88 89 85 89 96 93 92 95 90 85 81 77 76 82 86 87 91 96 97 95 96 96 92 93 93 82 72 72 75 68 62 59 47 32 28 26 26 30 30 32 46 52 47 51 55 47 38 36 36 36 35 30 22 20 25 25 25 32 32 30 39 43 26 16 32 47 40 22 16 28 50 68 75 78 78 76 76 76 74 79 87 88 91
82 84 83 83 87 90 88 85 89 94 92 93 92 85 80 82 79 74 77 87 91 89 93 99 95 92 93 93 97 99 85 73 73 71 69 73 67 49 38 38 30 24 27 30 43 55 48 46 58 55 43 41 39 37 38 38 37 29 22 23 23 26 30 26 26 38 41 33 30 36 46 44 29 24 36 53 67 75 78 78 78 77 77 76 80 86 89 93
94 96 92 92 93 91 89 90 93 94 92 91 84 74 76 81 78 73 74 85 95 89 86 96 95 91 95 95 96 97 86 78 79 72 69 75 67 46 41 42 34 28 28 31 45 51 43 50 62 54 46 46 42 43 45 40 40 38 26 20 21 28 33 27 28 37 38 35 38 40 44 42 33 41 60 73 78 81 82 81 80 79 77 76 80 85 89 93
97 95 95 101 96 86 86 89 91 93 90 86 81 75 78 80 77 77 75 77 88 86 82 91 94 91 96 95 93 96 87 79 79 71 65 68 60 50 48 43 35 34 33 37 49 51 49 57 58 49 50 49 45 55 57 44 40 39 30 26 28 32 34 31 33 40 36 29 34 42 36 24 31 57 78 84 83 82 81 82 81 80 76 75 81 86 87 89
96 91 92 100 96 86 85 86 86 84 81 82 82 78 82 82 76 77 78 77 84 83 79 86 91 92 97 96 89 83 76 74 72 62 59 61 58 61 63 47 30 28 32 45 62 64 60 57 50 49 55 52 49 55 51 38 35 33 30 31 32 33 35 33 37 44 40 30 32 33 23 23 47 67 71 77 84 81 79 80 79 80 78 76 80 83 82 82
Wind_Speed
16 16 16 16 16 16 16 16 16 17 17 17 17 18 17 18 18 18 18 18 18 18 19 20 21 22 22 22 23 25 29 32 29 21 11 7 7 9 15 16 14 12 10 10 11 10 7 5 6 6 6 6 3 3 6 3 3 3 3 7 8 7 7 9 11 8 6 7 7 5 5 7 6 2 4 3 6 7 5 3 3 5 5 3 8 17 23 23
16 16 16 16 16 16 16 16 17 17 17 17 17 17 18 18 18 18 18 19 19 18 19 19 19 21 21 23 23 25 30 30 23 14 7 6 8 13 19 18 14 11 8 11 12 8 4 4 5 8 6 4 3 4 6 4 4 6 3 7 9 7 6 9 12 9 7 9 8 7 7 8 7 4 5 4 5 7 5 3 1 4 6 7 13 19 22 23
16 16 16 16 16 16 17 17 17 17 17 17 18 18 18 18 18 18 18 18 19 19 19 19 19 20 20 22 23 26 29 24 13 4 4 5 6 13 18 18 14 10 10 13 13 10 7 4 3 7 6 4 3 4 7 6 6 5 3 8 7 5 6 7 10 11 9 9 10 7 5 7 5 4 5 4 5 7 5 4 5 5 7 10 14 19 22 23
16 16 16 16 17 17 17 17 17 17 18 17 18 18 17 18 18 18 18 18 18 19 19 19 19 19 20 21 22 25 23 14 3 5 7 7 8 14 19 20 17 9 10 14 12 9 7 4 4 5 5 5 3 3 8 8 5 5 6 8 4 5 7 7 9 10 8 7 9 6 5 7 5 3 6 6 5 6 6 8 8 9 14 15 15 19 22 23
15 16 16 16 16 17 17 18 18 19 19 18 18 18 18 18 17 18 18 18 18 18 19 19 19 19 20 20 21 23 15 5 3 7 4 10 11 15 19 22 19 11 6 13 12 8 5 3 3 4 4 5 6 4 7 8 4 4 7 5 4 6 8 6 7 8 6 4 4 6 7 6 5 3 5 9 8 4 3 8 10 11 16 19 19 20 21 21
15 15 15 16 16 17 17 18 19 20 20 19 19 19 19 18 18 17 17 18 18 18 18 18 19 19 19 20 20 15 6 3 1 6 2 13 14 15 20 21 18 13 3 10 10 8 5 4 5 6 5 4 9 8 4 6 5 5 7 4 5 7 7 4 6 6 4 5 4 5 5 4 7 4 3 6 6 2 1 6 9 11 16 20 21 21 20 20
16 16 16 16 16 17 18 18 20 20 20 20 20 20 20 19 18 17 17 18 18 17 18 18 19 18 18 20 15 6 1 7 10 8 9 16 14 14 21 21 16 13 2 6 7 9 6 7 7 5 6 5 8 9 3 5 7 8 6 6 6 7 7 4 4 5 4 6 4 2 3 5 7 5 3 4 3 3 5 6 7 11 16 18 19 20 20 21
16 16 17 17 17 18 18 19 21 21 20 20 20 20 19 19 18 18 17 17 18 17 17 17 17 17 18 15 9 5 3 10 13 11 11 13 13 17 23 19 15 16 6 2 3 6 6 9 9 4 7 6 5 7 5 6 8 12 8 5 5 5 7 5 3 3 4 4 2 2 3 4 5 4 5 4 4 5 6 6 9 12 15 17 19 20 20 19
17 17 18 18 18 19 19 20 21 21 20 20 20 20 19 19 19 19 18 17 17 17 16 17 16 16 16 11 7 7 6 6 6 6 7 13 20 24 24 19 18 20 10 4 4 3 4 8 8 4 5 5 5 7 8 8 8 11 9 5 5 5 6 6 5 5 4 3 3 4 4 3 4 5 5 4 4 4 4 8 11 13 16 17 17 18 18 17
18 18 19 19 19 20 20 19 20 19 19 19 20 20 19 19 19 19 19 18 17 16 16 15 15 15 13 9 5 5 5 4 4 8 14 22 28 28 24 21 21 18 10 6 4 3 3 4 5 3 2 3 6 6 8 9 3 4 8 7 6 5 4 5 7 7 4 3 4 6 4 3 4 5 5 4 5 5 8 10 12 14 16 16 15 15 16 15
19 19 19 19 19 20 18 18 19 18 19 19 20 20 20 20 19 20 19 18 18 17 15 14 14 13 10 7 5 7 6 6 11 20 26 28 29 28 24 20 18 13 8 7 5 4 5 4 1 2 2 3 6 4 6 7 1 2 7 8 9 7 5 5 5 4 4 4 6 6 3 2 3 4 5 7 9 9 11 12 14 15 14 15 15 13 13 13
19 19 19 19 19 19 18 19 19 19 19 19 20 21 21 21 20 21 20 18 18 16 14 14 13 10 10 9 11 15 16 17 22 28 28 27 25 23 19 15 12 10 7 6 6 3 6 5 2 4 2 1 5 4 4 5 2 1 4 6 7 7 10 12 7 4 6 6 7 8 5 7 7 5 6 11 11 11 12 12 14 14 13 13 14 12 12 13
19 20 19 19 19 19 20 20 20 19 19 19 20 20 21 22 23 24 22 19 17 16 14 13 12 10 9 8 9 17 22 22 24 24 22 19 19 17 12 9 8 7 8 8 8 3 4 4 2 5 2 1 4 1 2 3 4 4 4 4 4 5 9 14 11 7 8 5 8 11 8 10 10 7 9 12 12 12 11 12 13 13 12 12 12 12 11 13
19 20 20 19 20 21 21 21 21 20 19 20 20 20 23 25 25 25 23 20 17 15 13 11 10 8 8 8 11 18 19 16 16 17 15 13 16 16 8 7 10 6 6 11 12 6 6 4 2 4 3 3 3 4 2 3 5 6 4 4 6 6 6 11 13 12 11 4 8 13 10 7 8 8 12 13 13 14 12 12 13 13 12 12 12 12 11 13
19 20 20 20 20 21 22 21 22 21 20 20 20 23 26 26 26 26 23 20 17 14 12 11 9 6 7 10 12 14 10 8 10 11 11 9 12 13 10 13 16 10 6 10 11 5 3 2 4 4 2 3 4 4 2 4 4 7 6 6 9 9 3 7 11 16 15 5 7 13 8 3 6 8 13 13 14 14 13 13 14 14 14 13 12 12 11 11
20 20 21 21 21 21 22 22 21 22 21 20 22 26 28 27 26 23 20 17 15 12 10 9 7 6 7 7 7 7 4 4 7 10 10 10 12 14 16 17 15 10 7 9 10 6 3 3 4 4 2 3 4 4 4 4 5 7 9 8 9 11 6 5 5 13 17 9 8 14 6 1 4 9 13 14 15 14 12 12 14 15 14 13 12 11 10 10
22 22 23 23 23 23 23 22 21 22 22 21 24 28 27 24 19 14 11 8 7 8 8 6 3 5 7 6 7 7 3 4 7 12 15 15 14 15 14 10 8 6 4 5 6 5 5 4 4 4 4 4 5 5 6 8 8 8 11 7 6 10 9 7 4 6 15 15 12 15 9 1 2 10 14 15 17 16 13 13 15 15 14 13 11 9 10 10
22 23 22 23 25 24 23 23 21 22 22 22 25 28 23 15 8 4 3 3 2 3 5 4 2 3 4 4 6 5 3 7 11 15 18 14 7 8 6 5 6 5 3 4 4 5 5 4 4 5 6 6 5 8 10 9 7 8 11 7 4 6 9 10 6 5 15 18 14 14 12 5 3 9 14 14 16 17 15 15 15 15 15 13 10 9 10 11
23 22 21 22 24 24 24 23 21 21 22 24 27 24 14 6 4 3 6 7 4 2 3 3 5 4 4 4 5 6 9 12 14 14 13 8 3 5 4 3 7 5 5 6 7 8 6 4 5 7 9 11 13 15 10 1 2 6 7 6 6 6 7 9 6 7 15 16 14 15 14 9 7 11 14 13 15 17 16 14 12 12 13 12 9 9 10 11
24 24 22 22 23 23 23 23 21 20 22 24 24 17 6 4 4 1 3 1 5 8 8 7 9 9 11 10 7 9 13 14 11 9 7 6 4 5 4 2 4 5 7 9 8 6 7 6 8 11 13 15 15 13 5 6 2 7 8 7 8 7 5 7 8 8 12 13 12 14 14 12 11 13 15 13 14 16 15 14 13 13 12 11 11 12 13 13
25 24 22 21 21 22 22 21 19 20 21 19 14 7 2 3 4 3 4 7 10 13 15 14 13 14 15 15 12 9 11 10 8 9 12 10 5 3 1 4 4 6 8 9 7 4 7 9 13 13 9 8 8 7 6 4 2 4 8 10 8 8 6 8 10 8 9 10 7 9 12 13 13 13 15 14 14 16 16 16 16 16 15 12 13 16 15 12
23 22 22 22 22 22 21 20 19 20 18 12 7 3 2 4 4 6 6 6 10 12 15 16 15 15 17 20 19 9 5 9 10 10 10 7 7 6 5 5 7 7 6 8 7 5 8 12 12 8 3 5 8 9 12 9 1 2 5 9 8 8 7 6 7 4 7 8 3 8 11 10 11 12 15 17 16 16 17 18 18 17 16 14 14 16 14 12
23 22 23 23 23 22 19 19 19 17 10 7 7 5 4 5 6 7 5 6 10 8 10 12 11 11 13 15 13 8 7 9 8 8 5 7 7 7 7 7 8 7 6 11 11 9 8 9 8 9 5 9 11 12 13 10 5 2 3 7 7 9 9 7 5 3 3 3 2 9 9 5 7 10 13 16 16 15 16 18 17 16 16 15 15 14 13 13
23 23 23 23 23 21 19 20 17 9 5 11 12 6 3 5 6 6 3 5 8 5 5 7 6 6 8 6 4 9 8 7 6 6 3 9 7 5 7 7 8 7 9 16 17 13 7 2 7 13 10 11 12 12 14 11 7 5 3 4 5 10 10 5 5 5 4 1 4 10 6 2 7 10 11 11 12 14 16 17 17 16 15 12 10 11 12 13
24 24 23 22 22 21 22 18 8 4 10 14 8 2 4 6 5 3 2 4 5 3 3 3 3 5 6 3 5 8 5 4 9 8 4 7 6 4 5 5 6 9 12 15 15 13 8 1 6 16 14 11 11 12 15 13 8 5 6 6 4 8 9 6 10 9 6 4 7 9 6 4 7 11 12 9 10 13 13 14 16 17 16 12 9 11 12 12
25 24 23 23 21 22 19 9 3 8 13 8 1 1 6 6 3 1 1 3 3 2 1 2 2 4 5 5 5 5 3 3 9 12 8 8 7 4 4 5 4 8 10 9 8 6 7 5 3 11 16 14 11 10 14 15 10 6 5 7 6 5 6 9 11 10 6 5 6 7 7 4 5 10 13 11 13 14 11 12 15 15 15 13 11 13 14 13
25 24 24 23 21 20 13 5 6 10 7 3 1 4 6 5 2 2 2 2 2 1 2 1 2 5 4 4 6 4 2 3 3 7 9 9 6 4 6 7 5 5 5 5 6 4 9 12 6 6 13 15 12 9 12 16 12 6 4 8 9 5 4 6 8 7 3 3 5 5 5 3 3 8 13 14 15 16 14 13 15 13 13 15 15 14 14 12
25 25 24 23 21 17 12 10 9 8 7 5 2 4 6 5 3 2 1 2 1 1 1 1 1 4 2 3 6 5 4 5 3 2 5 9 8 3 5 8 7 7 8 9 9 4 9 16 11 6 9 12 11 7 10 15 11 4 4 7 8 7 5 4 3 3 2 3 7 7 5 5 4 5 11 15 16 17 17 16 17 15 15 16 17 16 14 11
27 26 26 25 21 14 9 9 9 8 7 3 1 4 5 3 2 1 0 1 1 0 1 1 2 3 2 2 5 6 4 2 3 1 1 6 8 4 4 6 8 8 10 11 8 2 5 14 13 8 7 7 8 7 10 14 9 4 6 6 5 4 4 3 2 2 3 5 10 11 11 8 3 4 9 14 16 16 15 15 18 19 19 19 18 17 15 12
28 28 27 24 18 9 4 8 10 8 7 6 5 6 4 2 2 1 1 1 1 1 1 1 2 2 2 1 3 4 4 4 4 3 1 2 6 5 4 3 5 6 7 8 8 4 1 7 9 7 6 5 6 8 10 13 9 6 8 6 4 3 2 2 1 1 3 6 8 12 14 9 5 5 9 11 12 14 14 13 17 20 21 22 19 17 17 15
30 30 27 19 12 5 3 5 7 5 7 8 4 3 2 2 1 1 2 1 1 1 0 2 2 2 3 3 3 2 3 4 3 4 4 2 5 5 4 3 4 4 5 5 8 8 5 4 6 5 6 5 7 10 11 13 10 7 9 8 4 4 2 2 2 1 6 7 3 9 12 9 8 6 8 10 9 13 16 15 19 23 22 20 19 17 17 16
32 29 21 11 6 6 5 2 2 1 8 8 3 1 1 1 1 3 2 2 2 2 0 1 2 3 3 4 5 4 4 5 3 4 5 4 6 7 5 4 4 4 6 6 7 8 5 3 4 4 8 9 8 10 10 10 9 7 10 10 7 6 4 4 5 4 6 4 1 7 12 8 8 4 7 12 12 15 18 17 19 22 21 19 18 17 16 15
30 19 10 4 4 6 6 4 4 7 10 9 4 1 0 1 3 4 3 1 1 1 1 2 4 5 5 4 6 6 4 4 4 4 4 5 7 8 6 5 2 1 4 6 7 6 4 3 5 7 8 10 11 10 10 10 10 10 10 11 10 8 6 7 7 4 4 1 2 7 12 7 5 3 8 15 15 16 19 19 20 19 18 17 16 15 14 14
22 8 5 3 1 3 6 8 7 8 10 7 2 1 1 3 3 3 4 3 2 3 2 2 5 7 7 8 9 6 4 4 5 5 4 6 7 7 6 7 6 2 1 6 5 6 7 4 7 9 6 10 13 9 7 9 10 8 4 4 7 6 5 5 6 4 3 3 3 6 8 5 3 3 6 13 15 16 17 16 15 13 11 10 11 13 13 14
12 5 6 7 4 1 5 12 9 7 7 4 1 1 3 4 3 3 3 3 2 4 4 4 5 9 9 8 8 7 6 5 5 5 4 5 6 7 7 7 7 3 1 5 3 4 6 2 3 5 3 10 15 7 4 7 9 6 1 2 6 5 2 2 1 1 3 3 3 5 4 2 1 1 1 4 8 11 13 11 11 10 8 9 10 13 14 15
8 4 5 6 5 4 4 13 13 8 5 2 1 3 4 4 3 2 2 3 3 3 6 7 5 6 6 4 3 3 6 4 3 5 4 4 4 6 7 4 5 7 4 3 2 3 5 2 3 5 4 10 14 9 8 9 7 5 5 6 4 2 3 3 1 2 2 4 4 3 3 1 2 1 3 2 5 8 11 11 12 11 10 12 12 13 14 16
9 4 3 6 7 6 2 11 14 10 4 2 2 4 4 4 5 4 2 3 4 3 5 5 2 3 3 3 2 1 6 4 3 4 4 4 3 4 6 3 4 9 6 2 0 0 4 3 4 8 10 8 8 10 12 8 4 5 7 6 4 3 1 1 2 2 3 6 3 3 5 3 4 3 2 3 8 9 11 13 14 13 13 14 14 14 16 16
9 4 2 6 9 6 2 10 14 9 3 2 5 6 4 4 5 5 4 3 4 4 4 3 2 2 2 3 2 2 6 4 4 5 4 4 2 3 7 5 3 8 7 3 0 2 3 4 3 8 11 7 4 8 10 7 4 3 5 5 3 3 4 1 2 3 4 5 2 3 4 3 6 5 2 6 10 11 12 13 14 15 15 15 15 15 16 17
5 2 1 6 9 3 4 10 12 6 1 3 5 5 4 5 7 7 6 6 6 5 4 4 4 3 2 3 2 3 6 4 4 5 3 3 2 2 6 5 3 6 6 6 3 1 1 3 4 5 7 7 6 7 9 9 4 1 4 5 1 2 4 3 1 1 3 4 3 4 3 3 5 5 5 9 12 13 13 13 14 17 18 17 15 15 16 18
3 1 0 6 8 2 9 10 6 2 2 4 5 4 5 7 9 9 8 8 7 4 4 5 5 4 3 3 2 2 5 4 4 4 3 4 2 2 5 4 5 6 5 5 5 0 1 2 3 3 3 6 7 6 8 10 8 5 8 8 5 2 1 2 2 0 1 2 2 4 4 3 4 5 8 11 12 14 15 15 16 16 18 18 15 15 16 17
3 1 0 6 4 6 9 5 2 1 3 4 4 5 7 7 9 10 8 9 8 5 5 5 5 4 3 2 3 2 3 4 4 4 4 5 4 2 5 6 7 7 5 3 4 2 1 2 1 3 4 6 5 4 6 10 9 7 6 6 6 5 3 5 7 2 1 0 1 3 3 2 3 4 8 9 8 11 15 16 16 16 18 16 13 14 15 16
2 1 2 5 2 8 4 2 3 2 3 5 5 6 8 8 9 9 5 6 7 5 6 5 5 5 5 4 3 1 2 3 4 5 4 5 7 5 5 8 8 8 6 3 2 2 2 1 2 1 3 3 2 3 5 10 9 5 4 4 5 5 6 8 7 4 2 1 0 0 2 1 2 1 4 4 2 5 10 11 9 10 12 11 11 14 15 16
1 1 3 3 4 4 1 3 2 2 4 6 7 9 9 6 6 6 4 4 4 3 4 4 3 4 4 4 3 2 3 3 4 6 4 4 8 6 5 8 8 9 8 4 2 3 2 1 1 1 2 0 1 1 2 6 8 5 5 6 6 8 7 5 2 2 4 4 2 2 3 2 1 0 3 3 2 4 7 8 7 5 6 9 12 15 15 16
2 2 2 1 3 2 2 2 3 5 6 8 10 11 8 5 5 6 6 4 3 2 3 3 2 3 3 3 3 2 3 2 4 6 4 3 5 3 5 8 8 8 7 3 4 4 3 2 1 2 5 4 3 4 3 6 8 8 8 8 7 7 6 2 1 2 5 6 5 4 4 4 2 2 1 2 5 7 8 9 9 8 8 11 13 14 15 16
3 2 1 1 3 3 2 2 3 5 9 11 12 12 9 5 5 8 8 7 4 3 2 2 2 3 2 2 3 3 3 3 3 3 2 3 3 2 6 9 9 8 6 6 7 5 2 2 2 2 5 8 7 5 4 5 6 6 7 9 8 7 9 6 3 5 6 4 4 6 7 7 4 2 4 4 5 7 8 9 9 8 11 14 14 14 15 13
2 0 2 1 2 3 3 3 3 4 7 9 9 9 9 9 8 5 5 5 2 3 3 2 2 3 2 3 3 4 5 6 5 2 3 4 3 1 6 10 11 10 8 10 11 5 1 2 3 3 3 3 2 1 2 2 4 6 9 11 9 7 9 6 3 5 5 3 3 7 7 9 12 8 2 5 6 7 8 9 9 9 12 15 15 15 15 13
1 1 3 3 1 2 2 2 2 3 7 8 6 6 9 13 13 5 1 1 2 4 3 3 4 3 3 4 3 4 5 6 6 5 5 5 3 2 3 9 10 10 9 10 10 5 0 2 3 4 6 5 6 6 3 1 5 9 10 11 10 8 8 8 7 4 4 4 6 5 3 5 13 15 4 4 6 6 7 9 10 11 13 15 15 16 16 15
2 1 2 3 2 2 2 3 5 8 12 9 4 5 10 14 14 9 3 3 3 3 2 1 3 4 4 5 3 3 4 4 5 5 5 5 4 1 2 3 6 10 11 9 7 4 2 3 1 3 5 7 7 8 6 4 5 7 8 10 12 11 11 11 8 3 4 6 4 2 3 6 12 12 3 2 6 8 8 9 10 12 14 15 16 17 16 17
3 2 2 3 2 4 5 8 9 11 12 9 4 5 10 14 15 12 6 4 6 2 2 2 5 6 7 8 5 3 4 3 3 4 3 4 5 3 3 2 5 11 12 8 4 3 2 1 1 2 5 9 10 10 8 7 6 7 9 11 13 13 13 13 10 6 5 5 3 2 5 9 12 8 4 2 4 6 7 9 11 14 16 17 18 18 17 18
3 2 3 3 4 5 6 8 8 9 8 5 3 5 8 11 14 15 9 6 8 4 2 1 9 10 8 6 3 4 5 4 3 4 4 4 4 4 4 2 4 10 12 8 4 2 1 1 1 2 5 9 10 9 8 10 10 9 9 11 11 11 12 12 11 7 4 5 5 4 5 9 8 2 3 2 5 7 9 12 14 14 17 18 18 17 15 17
3 5 5 5 5 4 4 4 4 6 5 2 3 7 9 10 13 16 12 7 7 7 5 6 11 10 5 3 3 5 7 7 7 7 6 4 2 2 2 2 5 8 8 6 3 1 1 1 1 2 5 7 5 4 3 7 7 7 9 12 12 11 9 9 7 6 6 8 7 4 6 9 5 2 3 2 6 8 10 14 15 15 16 18 18 17 16 18
5 5 5 4 4 3 4 5 3 3 3 2 5 8 9 11 14 14 10 4 5 8 8 8 12 9 4 3 4 5 6 7 9 8 6 5 4 3 4 4 8 9 8 5 1 1 2 1 1 1 4 5 4 2 5 9 5 4 8 11 13 11 7 5 4 4 7 8 6 6 9 7 2 1 3 4 7 10 11 13 14 16 18 18 18 19 19 20
Wind_Direction
356 357 356 356 354 354 353 350 348 347 347 345 343 343 342 341 339 339 339 339 339 337 337 337 338 337 336 334 332 327 326 325 324 320 306 315 357 1 352 340 321 310 286 274 271 278 298 260 201 181 175 160 185 173 166 168 148 183 203 222 226 207 193 170 172 178 167 180 196 205 200 206 216 172 151 139 93 104 102 65 49 38 37 78 116 131 143 154
355 353 353 353 352 352 350 348 346 344 344 342 341 340 338 337 336 337 336 336 336 336 337 336 336 336 336 335 330 326 327 325 316 300 303 14 27 4 355 348 326 301 268 247 240 232 249 256 181 170 177 182 184 165 177 169 179 198 183 222 226 197 180 170 176 176 172 187 186 195 197 199 212 164 162 195 143 133 119 92 105 75 81 109 125 138 148 157
355 352 351 351 350 348 346 345 342 340 339 337 336 335 334 333 334 334 333 334 334 334 335 334 335 334 336 334 327 328 329 323 307 280 32 28 1 355 354 351 335 296 257 242 232 213 222 268 210 182 182 196 188 175 185 171 185 196 196 226 223 168 181 189 184 184 188 189 188 193 182 196 206 144 169 194 162 170 173 162 174 171 157 148 147 151 156 164
355 352 350 348 346 344 343 342 338 337 334 333 331 330 329 328 330 330 331 332 332 333 332 333 335 333 336 334 328 332 329 315 287 125 54 1 339 355 355 355 347 306 249 239 225 197 211 260 243 197 187 198 188 188 189 181 180 174 205 224 182 149 194 203 194 196 196 196 199 177 140 189 192 150 170 160 169 203 211 200 197 188 172 163 162 163 166 171
352 348 346 344 343 342 341 339 337 335 333 331 328 326 324 324 325 325 328 329 329 331 330 332 333 332 335 332 331 333 322 304 123 135 44 348 341 353 355 358 356 339 251 223 209 188 204 230 217 186 197 197 174 188 199 190 170 171 211 218 138 165 197 195 199 209 206 207 206 157 154 176 152 149 172 175 205 224 208 217 212 185 168 168 169 168 172 176
348 344 343 341 341 340 339 338 336 334 332 330 327 326 323 321 320 321 323 324 326 327 329 330 330 331 332 331 333 334 313 302 154 166 300 327 331 349 351 351 357 359 282 205 190 185 195 194 196 188 195 199 188 192 190 184 190 211 215 196 169 179 189 179 190 207 203 202 196 170 173 140 134 152 176 195 218 232 257 239 215 181 168 168 167 170 177 182
346 343 341 339 337 336 335 335 334 332 329 327 326 324 322 321 318 316 318 320 322 323 326 328 329 331 331 332 336 349 306 282 269 235 277 305 320 343 342 340 350 5 2 199 190 187 181 187 195 183 186 199 203 201 180 176 202 234 219 179 184 179 185 182 173 188 187 200 191 150 152 141 166 164 151 215 244 260 261 247 205 171 163 165 168 178 184 187
343 341 338 336 335 335 334 333 332 330 327 324 323 322 321 321 318 314 314 316 318 318 321 325 328 330 331 338 343 333 271 268 281 284 287 299 318 329 333 333 336 355 359 259 256 200 184 191 191 169 197 207 198 194 183 173 201 230 220 164 175 181 194 194 169 167 165 191 164 138 175 164 186 156 140 199 249 263 253 214 182 158 161 172 178 184 188 191
342 339 337 336 336 336 335 333 330 327 326 323 321 321 320 319 318 315 312 311 313 314 316 321 325 326 328 336 342 318 270 256 306 323 307 311 316 318 325 325 325 342 341 310 327 255 205 194 190 173 215 219 188 185 187 193 205 218 206 170 178 183 193 201 208 192 154 168 177 187 207 183 170 151 155 203 233 241 200 176 168 164 173 182 186 188 189 191
340 338 337 337 336 334 333 330 327 327 326 322 320 319 318 317 315 313 312 311 309 308 311 315 318 321 322 324 319 296 264 255 311 321 313 313 314 313 316 317 321 331 322 304 312 251 220 206 196 184 256 224 188 189 193 202 209 189 191 192 200 195 186 197 212 205 165 151 181 188 198 164 164 191 200 200 201 178 160 167 170 177 185 187 191 192 191 193
339 338 336 335 333 329 329 328 327 327 324 322 319 317 316 315 312 310 310 310 307 304 305 307 312 313 307 301 269 255 260 275 303 312 311 311 311 310 311 315 320 315 297 292 276 224 227 249 260 195 229 202 187 193 206 211 0 118 174 191 209 219 227 216 204 192 185 188 183 183 201 153 162 216 197 165 179 174 162 171 179 186 191 193 194 191 193 195
338 336 334 333 330 325 326 326 326 324 322 321 319 316 315 312 312 310 307 307 307 303 299 301 306 306 296 280 246 250 270 290 304 308 308 310 310 311 313 314 312 290 266 268 271 236 218 235 258 225 247 219 179 175 222 217 215 165 162 185 197 209 229 224 208 168 184 202 173 168 227 227 193 194 170 160 171 172 169 175 183 191 194 195 195 192 195 196
336 335 334 333 330 325 326 326 324 323 321 320 318 316 314 312 312 309 305 302 301 299 297 297 296 294 289 273 251 265 282 295 301 304 308 313 314 318 320 324 325 283 243 243 259 256 226 249 260 235 298 302 183 167 288 191 183 197 188 204 183 192 223 212 201 181 183 195 158 166 231 227 185 173 167 165 169 168 176 183 187 194 195 196 197 195 197 197
336 335 334 332 330 327 327 327 325 325 322 319 319 317 315 314 311 308 304 297 293 291 290 291 287 283 271 262 279 287 292 296 292 304 320 327 327 329 332 343 347 317 235 238 252 260 266 278 241 235 282 264 268 333 318 151 180 183 172 208 206 213 209 184 187 184 184 195 163 182 236 223 157 169 176 169 172 173 181 190 192 195 196 198 197 196 198 199
335 334 332 331 330 327 327 327 326 326 325 321 318 319 318 315 310 307 302 292 287 285 283 285 275 270 275 273 285 290 292 284 287 319 337 341 337 328 319 320 324 313 263 240 247 259 273 216 174 208 230 221 276 298 183 154 184 179 183 206 206 215 190 157 183 187 185 184 176 191 231 226 154 179 181 176 179 181 187 191 195 198 198 199 196 197 198 198
334 333 332 331 329 326 325 326 325 325 327 323 319 322 321 317 312 306 298 286 279 274 271 276 255 236 274 285 292 291 280 263 295 330 329 327 325 306 305 311 307 295 267 241 240 241 226 179 175 199 197 187 218 220 171 167 192 193 210 210 194 204 195 151 177 195 184 159 188 206 212 101 163 183 182 184 187 188 194 194 198 200 198 199 197 196 193 193
335 334 333 330 328 328 327 325 323 325 329 325 322 324 323 318 315 308 301 287 269 251 241 248 213 213 253 273 287 286 282 278 305 322 313 313 316 304 301 298 300 296 245 223 227 217 197 184 178 183 203 205 192 188 185 196 197 194 211 216 190 193 191 168 146 192 184 172 193 212 211 160 140 178 180 186 191 194 199 198 201 203 200 200 195 191 193 197
335 333 332 329 328 329 329 326 323 325 329 326 325 327 325 323 331 345 26 81 115 169 205 205 178 222 239 246 276 283 290 298 306 310 307 312 328 333 317 262 286 302 216 196 193 187 183 185 188 181 192 198 187 194 197 200 205 196 197 203 173 168 187 187 160 155 181 189 196 200 205 199 135 177 182 185 190 194 203 202 202 204 203 202 195 195 199 203
332 332 331 328 329 328 328 328 325 327 330 328 329 331 329 341 11 75 107 108 111 157 227 201 184 232 292 271 261 277 286 295 301 295 292 299 329 6 355 261 278 270 194 189 186 186 187 180 189 189 194 197 195 198 194 68 252 193 170 176 173 161 185 192 176 165 178 190 199 197 199 186 160 180 186 188 189 195 205 205 204 206 207 205 197 202 205 209
331 332 331 329 329 326 326 329 327 329 332 331 333 337 345 6 357 112 132 206 246 246 261 244 206 234 278 284 278 299 302 298 293 274 263 279 307 336 335 221 262 247 206 194 178 180 191 194 202 202 204 200 196 198 197 22 46 154 146 171 188 179 178 183 184 183 182 190 198 198 194 181 176 182 188 190 186 195 204 202 204 206 206 205 202 207 211 212
332 331 330 330 328 325 326 328 328 331 332 333 342 352 356 341 333 319 315 284 256 245 250 247 231 237 255 267 281 315 322 302 282 266 268 270 264 298 279 172 216 229 208 187 165 164 192 212 216 208 207 190 179 193 223 282 29 129 171 178 186 193 179 181 190 182 188 202 192 184 191 187 183 182 186 190 187 196 202 200 205 205 205 205 205 212 214 212
332 330 328 327 327 326 327 328 330 331 329 337 359 8 272 278 287 300 308 292 270 245 241 247 245 250 254 260 268 282 294 282 282 278 267 245 210 207 168 165 220 223 190 177 176 179 200 224 217 190 141 147 167 190 211 230 272 34 188 177 183 189 167 179 199 169 185 211 173 168 192 189 184 185 185 190 193 199 202 203 205 202 204 205 206 212 211 207
331 328 327 327 329 330 329 330 329 326 328 343 335 302 281 295 294 292 285 292 288 253 238 245 242 251 260 264 257 227 226 249 270 283 235 172 183 205 174 176 220 223 187 187 196 193 203 227 192 154 151 171 177 188 199 216 230 247 191 182 182 172 168 184 193 132 152 219 157 166 185 185 188 196 194 196 199 201 205 209 209 203 206 208 208 211 207 203
330 328 328 328 330 332 331 330 326 319 330 332 315 292 315 322 302 294 283 285 288 270 247 237 229 242 253 271 218 186 210 225 233 279 227 174 179 193 181 186 206 219 208 198 202 205 211 272 160 168 184 184 178 182 192 204 214 219 215 210 177 168 183 170 138 136 119 124 149 150 164 205 198 203 202 200 203 207 210 212 212 209 208 207 204 209 205 201
331 329 329 329 330 330 328 327 325 324 327 322 306 290 341 326 301 283 302 299 283 274 257 212 212 229 216 206 163 176 211 228 225 243 234 194 195 187 183 183 198 219 217 204 206 213 220 295 166 178 185 185 182 183 191 198 203 212 224 229 192 167 178 139 133 152 155 194 182 161 188 210 191 205 202 189 197 208 209 210 213 210 206 200 196 206 206 201
331 329 329 329 329 329 329 326 322 330 328 318 259 321 322 319 318 218 246 305 287 268 241 161 191 205 190 174 165 177 193 224 231 231 231 216 209 234 206 173 196 224 217 205 213 226 212 211 189 184 183 182 190 193 189 191 197 211 208 203 190 146 140 147 161 175 180 191 185 194 219 199 177 207 201 186 194 202 201 204 210 208 202 199 201 207 208 204
330 328 327 325 326 328 324 302 304 317 312 268 242 323 320 316 305 206 231 298 290 236 177 165 193 196 198 175 163 178 240 317 275 223 226 213 195 262 234 185 188 214 188 188 214 206 189 200 215 198 186 185 196 199 184 186 195 202 157 161 180 171 133 147 170 193 200 125 149 200 228 221 211 203 192 190 197 204 203 202 205 201 195 199 206 208 205 203
329 327 324 321 321 317 300 286 291 284 269 262 273 326 337 328 291 223 276 309 298 139 167 200 168 171 178 164 181 220 304 326 304 225 217 201 183 233 239 195 191 198 183 194 208 170 175 200 207 196 195 198 197 180 171 186 195 184 142 147 173 187 176 162 165 176 158 160 190 196 193 212 216 166 180 192 199 208 208 205 205 201 199 201 206 207 201 196
328 326 322 320 318 309 283 268 261 257 269 260 235 332 347 330 280 221 256 302 289 40 126 148 162 161 136 138 201 241 292 293 257 292 157 187 190 213 252 205 188 194 197 208 219 159 172 203 202 190 203 204 182 151 159 188 195 152 145 136 135 164 169 185 217 140 140 211 213 191 183 206 211 146 182 194 202 209 207 208 211 210 211 212 210 207 200 194
328 324 322 320 315 305 261 246 253 264 267 245 258 311 333 299 266 276 267 264 295 313 147 185 188 169 162 198 227 226 242 247 244 262 244 157 186 217 273 244 188 193 202 213 228 249 256 204 194 189 203 200 169 156 163 185 188 146 154 154 128 137 120 141 203 117 179 226 213 181 182 206 224 184 190 198 200 201 198 205 213 215 217 217 213 205 199 197
328 325 323 319 302 268 212 254 277 267 230 224 248 306 311 278 218 246 264 266 286 282 260 241 218 193 202 232 249 197 217 252 237 229 235 160 171 206 255 220 178 184 184 181 210 235 267 201 180 179 190 185 169 169 173 182 181 162 177 188 172 164 152 140 146 165 214 224 189 163 171 200 226 206 191 199 195 192 196 201 207 213 216 214 211 202 198 201
330 328 324 316 268 221 208 242 358 147 182 176 151 84 275 289 237 234 260 355 303 242 100 262 236 244 222 214 242 233 235 256 226 214 228 198 182 200 220 198 164 173 182 172 187 215 249 221 188 175 183 193 183 172 176 183 184 181 181 184 184 181 179 184 183 192 215 223 70 156 162 189 235 221 186 199 198 193 197 204 207 210 212 209 202 193 193 199
333 333 331 316 220 212 206 180 106 118 145 145 131 81 131 278 263 230 234 330 273 234 6 264 249 252 239 241 256 236 221 236 214 208 221 205 193 200 226 244 231 212 178 170 173 182 201 219 198 178 177 197 196 178 177 183 187 190 183 184 188 180 174 188 194 201 203 163 52 170 171 190 240 209 189 198 202 199 199 206 210 209 209 202 188 182 185 193
341 356 18 24 196 216 194 176 143 127 138 136 118 93 191 252 261 235 239 240 250 296 300 249 266 271 258 258 262 243 225 227 204 197 198 195 195 196 227 242 233 288 95 162 179 175 177 182 185 182 167 184 198 196 179 175 185 192 188 193 194 187 182 186 187 189 170 123 94 165 182 200 192 165 191 196 201 206 205 210 214 213 207 184 169 179 186 194
354 57 45 40 47 12 183 181 169 141 141 134 121 200 229 258 261 251 258 243 256 296 283 265 276 284 278 259 257 247 231 225 200 193 185 191 194 187 208 219 206 229 183 164 173 178 181 158 169 188 152 174 190 192 157 171 185 185 162 220 205 191 158 103 121 125 112 121 134 167 207 254 195 77 42 193 200 206 210 215 217 216 198 169 170 188 194 200
10 73 38 31 25 9 182 186 183 173 167 144 168 227 237 252 239 219 240 244 255 284 293 292 262 263 287 269 251 229 208 213 211 196 182 193 201 188 204 211 181 201 209 165 153 179 182 123 136 187 189 187 187 173 176 192 180 159 184 200 187 119 112 117 111 42 88 177 163 177 228 277 215 191 57 132 189 194 205 211 209 206 188 179 187 194 197 202
3 17 16 14 5 356 213 189 182 179 176 150 216 241 246 253 239 226 230 247 264 266 281 300 245 223 292 293 297 177 181 190 200 189 170 184 197 182 197 206 174 198 212 202 100 210 190 162 156 189 192 194 189 176 190 204 173 164 190 179 114 72 57 123 153 127 188 198 167 181 217 203 188 190 76 151 186 190 200 203 200 196 186 188 198 199 196 198
345 329 327 2 0 355 236 184 171 167 154 184 246 259 251 243 233 223 222 239 270 267 257 270 223 205 269 298 331 148 172 172 168 175 167 185 202 176 186 183 185 205 203 181 202 342 220 186 163 197 193 175 167 186 194 206 225 222 183 154 129 178 191 175 159 168 186 195 180 181 211 223 203 197 159 178 190 198 199 194 190 189 190 197 203 199 192 192
346 324 311 359 359 8 161 163 157 152 165 229 257 265 251 258 259 243 237 253 261 250 237 239 226 219 238 282 337 155 183 186 163 171 178 187 186 185 193 178 181 210 186 169 196 350 299 202 162 197 198 158 158 194 194 190 210 260 164 169 198 217 197 180 149 180 191 188 192 193 202 219 205 203 194 190 195 196 190 187 190 190 194 201 201 193 189 192
10 5 16 1 359 89 145 148 148 158 231 238 255 267 273 282 279 261 243 249 257 233 216 226 222 226 231 251 275 199 200 212 185 177 184 192 181 197 218 193 169 187 165 170 207 5 3 256 158 150 183 169 178 204 197 186 182 182 185 187 184 171 191 202 191 330 212 187 184 206 225 214 187 198 205 203 203 195 184 185 192 194 196 199 196 187 184 191
359 40 47 1 15 132 137 144 188 221 236 258 261 260 273 279 280 277 251 232 240 232 226 230 225 242 257 251 257 222 204 219 208 192 178 190 210 218 216 199 172 164 145 161 217 190 134 305 44 125 174 182 171 154 181 194 189 186 190 188 185 180 168 194 200 180 94 249 191 209 249 243 179 196 212 210 205 196 191 188 189 195 199 197 188 179 180 186
342 91 354 355 98 145 145 225 231 217 239 263 267 264 277 280 278 287 273 233 235 227 228 237 230 240 251 244 248 250 229 222 207 212 196 195 222 222 193 192 177 165 168 183 204 174 143 336 349 120 174 195 165 133 195 201 184 178 197 179 177 188 192 203 202 169 153 196 52 267 281 272 129 186 247 246 236 199 199 197 191 193 195 184 173 177 180 182
358 306 333 348 155 157 313 276 234 246 246 262 281 277 274 272 272 288 291 249 232 203 209 219 209 222 235 227 219 220 228 215 200 219 218 204 222 221 184 188 176 165 186 205 159 151 161 227 286 130 131 212 155 111 237 198 172 182 207 188 186 194 201 215 194 143 194 208 190 216 264 254 142 40 269 245 197 187 194 198 193 177 170 168 173 180 180 176
309 271 315 323 195 210 315 291 295 305 295 300 305 297 280 243 244 274 284 261 215 193 223 221 193 210 229 213 204 221 237 228 212 217 221 223 225 186 159 189 190 178 189 186 143 164 189 218 234 147 135 143 152 154 182 194 193 203 198 188 191 182 170 164 100 170 213 216 203 212 254 257 186 121 117 146 159 176 185 191 186 168 168 177 179 179 174 169
302 244 258 250 223 227 239 273 294 300 306 314 312 303 294 270 236 242 262 268 235 195 239 246 160 166 186 175 190 236 261 256 230 221 225 231 237 166 157 187 206 202 185 156 157 177 201 194 207 171 150 161 172 179 185 186 191 202 196 190 186 175 173 173 169 196 207 203 193 213 243 261 259 145 117 124 156 175 180 182 177 166 171 177 177 173 168 165
330 1 322 310 206 215 243 267 268 271 300 314 313 302 306 315 303 248 237 273 245 185 234 262 134 145 184 185 208 239 241 230 221 236 248 225 233 213 168 185 204 208 188 172 174 174 141 199 223 245 228 198 205 269 32 108 170 187 194 191 181 180 188 186 191 201 191 159 186 216 240 271 282 276 195 146 173 182 176 175 171 168 172 176 174 168 164 165
9 13 343 349 287 249 252 251 258 283 298 309 312 306 313 318 321 325 183 245 201 187 227 221 170 186 195 170 194 232 217 210 215 230 242 229 245 309 184 192 201 201 199 193 180 163 227 249 230 237 254 273 281 283 303 281 212 200 188 181 178 181 187 196 210 191 154 173 203 214 218 255 272 274 262 153 182 189 182 183 177 172 174 175 169 163 164 167
17 346 0 9 315 289 304 304 316 311 305 307 295 294 314 322 330 340 326 268 250 210 233 236 193 218 225 196 200 212 183 176 198 219 225 208 215 250 165 189 198 196 206 204 174 161 247 263 220 228 261 269 263 260 255 243 243 223 192 176 177 184 191 201 214 183 166 205 219 213 215 237 259 273 319 109 185 182 176 183 179 172 172 170 166 164 166 170
21 335 346 14 301 274 285 295 306 309 306 308 294 299 321 326 329 335 330 308 309 274 167 282 287 283 264 240 219 177 175 185 189 213 220 188 192 190 151 148 194 196 208 214 182 176 248 266 196 236 286 285 273 264 244 216 221 231 213 190 180 184 192 201 206 193 193 230 274 287 268 267 265 276 1 46 172 156 153 168 171 171 170 169 170 170 172 173
28 324 323 328 286 275 279 287 302 309 305 302 299 319 328 323 324 330 324 300 302 309 122 276 301 310 303 276 231 164 193 214 193 206 212 183 182 189 180 195 189 187 199 207 194 193 234 257 354 358 310 290 279 275 245 205 202 215 216 203 187 181 188 200 205 189 182 235 256 273 291 282 272 283 47 89 147 139 157 171 172 174 173 172 174 173 172 171
0 308 312 309 298 302 300 296 306 308 307 319 328 334 334 320 319 322 311 265 251 281 300 299 299 306 308 276 235 199 202 207 210 221 226 220 208 194 217 223 166 167 187 196 177 158 202 242 332 345 299 287 296 303 231 175 178 210 220 208 193 183 184 195 196 173 178 213 227 234 252 260 269 78 87 153 157 159 174 175 173 175 175 175 174 173 173 174
349 313 315 302 292 310 319 318 316 300 308 358 335 326 315 300 305 317 317 282 242 263 277 293 301 306 304 256 248 254 253 245 241 236 231 245 258 270 273 213 157 157 174 176 158 141 149 216 267 318 285 290 331 6 141 135 139 222 230 207 191 184 177 171 178 186 193 201 200 206 229 247 309 94 194 195 185 190 188 180 178 174 172 174 175 175 179 180